UX971 LEMD-EFRO

Flight info

Callsign UX971
Flight time N/A
Altitude 38000
Route RBO N867 DGO L176 LUSEM DCT LULUT DCT ADABI DCT BOKNO UN858 VANAD UN874 BAMES UT191 PODEM UN873 BAZOS DCT BELDI/N0458F370 DCT VICOT DCT DOROR/N0456F390 DCT XENTA DCT NEMGU
Aircraft A20N/M-SDE2E3FGHIRWXY/LB1

Departure

Time N/A
Airport Adolfo Suárez Madrid–Barajas Airport (LEMD)

Arrival

Time 2026-05-08 03:02
Airport Rovaniemi Airport (EFRO)
Time Latitude Longitude Altitude Speed Heading
2026-05-08 01:19 58.01177 10.60491 38157 ft 453 kts 34°
2026-05-08 01:19 58.03410 10.63310 38159 ft 454 kts 34°
2026-05-08 01:20 58.08665 10.69959 38164 ft 454 kts 34°
2026-05-08 01:20 58.13918 10.76630 38168 ft 455 kts 34°
2026-05-08 01:21 58.19178 10.83337 38169 ft 455 kts 34°
2026-05-08 01:21 58.24422 10.90047 38169 ft 454 kts 35°
2026-05-08 01:22 58.29629 10.96731 38168 ft 455 kts 35°
2026-05-08 01:22 58.34822 11.03421 38166 ft 455 kts 35°
2026-05-08 01:23 58.40021 11.10145 38170 ft 454 kts 35°
2026-05-08 01:23 58.45248 11.16930 38167 ft 454 kts 35°
2026-05-08 01:24 58.50391 11.23630 38167 ft 453 kts 35°
2026-05-08 01:24 58.55612 11.30454 38156 ft 453 kts 35°
2026-05-08 01:25 58.60773 11.37214 38152 ft 453 kts 35°
2026-05-08 01:25 58.65999 11.44083 38152 ft 453 kts 35°
2026-05-08 01:26 58.71140 11.50832 38156 ft 454 kts 34°
2026-05-08 01:26 58.76381 11.57412 38157 ft 454 kts 33°
2026-05-08 01:27 58.81698 11.64022 38165 ft 454 kts 33°
2026-05-08 01:27 58.87005 11.70657 38163 ft 455 kts 34°
2026-05-08 01:28 58.92315 11.77330 38164 ft 455 kts 34°
2026-05-08 01:28 58.97563 11.83948 38163 ft 455 kts 34°
2026-05-08 01:29 59.02879 11.90678 38166 ft 456 kts 34°
2026-05-08 01:29 59.08157 11.97384 38169 ft 456 kts 34°
2026-05-08 01:30 59.13467 12.04157 38172 ft 456 kts 34°
2026-05-08 01:30 59.18771 12.10957 38170 ft 456 kts 34°
2026-05-08 01:31 59.24073 12.17784 38168 ft 455 kts 34°
2026-05-08 01:31 59.29359 12.24620 38170 ft 456 kts 34°
2026-05-08 01:32 59.34564 12.31376 38171 ft 456 kts 34°
2026-05-08 01:32 59.39729 12.38103 38173 ft 456 kts 34°
2026-05-08 01:33 59.44970 12.44954 38168 ft 456 kts 34°
2026-05-08 01:33 59.50265 12.51903 38171 ft 455 kts 34°
2026-05-08 01:34 59.55539 12.58850 38169 ft 456 kts 34°
2026-05-08 01:34 59.60807 12.65819 38170 ft 456 kts 34°
2026-05-08 01:35 59.66070 12.72804 38170 ft 455 kts 34°
2026-05-08 01:35 59.71343 12.79832 38168 ft 455 kts 34°
2026-05-08 01:36 59.76595 12.86859 38171 ft 456 kts 35°
2026-05-08 01:36 59.81855 12.93923 38168 ft 457 kts 35°
2026-05-08 01:37 59.87023 13.00891 38169 ft 455 kts 35°
2026-05-08 01:37 59.92272 13.07992 38171 ft 456 kts 35°
2026-05-08 01:38 59.97490 13.15082 38169 ft 454 kts 35°
2026-05-08 01:38 60.02719 13.22215 38172 ft 456 kts 35°
2026-05-08 01:39 60.07958 13.29388 38167 ft 456 kts 35°
2026-05-08 01:39 60.13197 13.36593 38169 ft 457 kts 35°
2026-05-08 01:40 60.18426 13.43808 38168 ft 455 kts 35°
2026-05-08 01:40 60.23533 13.50885 38169 ft 456 kts 35°
2026-05-08 01:41 60.28733 13.58113 38168 ft 457 kts 35°
2026-05-08 01:41 60.33872 13.65290 38167 ft 457 kts 36°
2026-05-08 01:42 60.39107 13.72630 38170 ft 457 kts 36°
2026-05-08 01:42 60.44329 13.79981 38174 ft 457 kts 36°
2026-05-08 01:43 60.49542 13.87346 38164 ft 456 kts 36°
2026-05-08 01:43 60.54711 13.94680 38168 ft 456 kts 36°
2026-05-08 01:44 60.59906 14.02078 38164 ft 455 kts 36°
2026-05-08 01:44 60.65087 14.09487 38155 ft 455 kts 36°
2026-05-08 01:45 60.70174 14.16792 38150 ft 455 kts 36°
2026-05-08 01:45 60.75271 14.24138 38154 ft 455 kts 36°
2026-05-08 01:46 60.80433 14.31608 38151 ft 455 kts 36°
2026-05-08 01:46 60.85601 14.39118 38152 ft 455 kts 36°
2026-05-08 01:47 60.90775 14.46666 38165 ft 455 kts 36°
2026-05-08 01:47 60.95939 14.54231 38168 ft 456 kts 36°
2026-05-08 01:48 61.03686 14.65639 38172 ft 456 kts 36°
2026-05-08 01:48 61.08846 14.73277 38172 ft 457 kts 36°
2026-05-08 01:49 61.14016 14.80958 38173 ft 457 kts 36°
2026-05-08 01:49 61.19146 14.88613 38173 ft 457 kts 37°
2026-05-08 01:50 61.24265 14.96282 38166 ft 456 kts 37°
2026-05-08 01:50 61.29380 15.03977 38170 ft 457 kts 37°
2026-05-08 01:51 61.34484 15.11686 38166 ft 456 kts 37°
2026-05-08 01:51 61.39623 15.19484 38168 ft 456 kts 37°
2026-05-08 01:52 61.43892 15.25983 38173 ft 457 kts 37°
2026-05-08 01:52 61.49028 15.33835 38174 ft 458 kts 37°
2026-05-08 01:53 61.54161 15.41711 38167 ft 456 kts 37°
2026-05-08 01:53 61.59278 15.49598 38167 ft 456 kts 37°
2026-05-08 01:54 61.64363 15.57469 38173 ft 457 kts 37°
2026-05-08 01:54 61.69479 15.65419 38167 ft 457 kts 37°
2026-05-08 01:55 61.74578 15.73377 38170 ft 455 kts 37°
2026-05-08 01:55 61.79638 15.81309 38166 ft 454 kts 37°
2026-05-08 01:56 61.84701 15.89280 38154 ft 453 kts 37°
2026-05-08 01:56 61.89762 15.97279 38166 ft 455 kts 37°
2026-05-08 01:57 61.94843 16.05343 38172 ft 457 kts 37°
2026-05-08 01:57 61.99927 16.13449 38171 ft 457 kts 38°
2026-05-08 01:58 62.04922 16.21446 38173 ft 456 kts 38°
2026-05-08 01:58 62.10029 16.29657 38167 ft 456 kts 38°
2026-05-08 01:59 62.15105 16.37853 38169 ft 457 kts 38°
2026-05-08 01:59 62.20161 16.46054 38168 ft 456 kts 38°
2026-05-08 02:00 62.25193 16.54250 38170 ft 457 kts 38°
2026-05-08 02:00 62.30248 16.62516 38167 ft 456 kts 38°
2026-05-08 02:01 62.35233 16.70706 38165 ft 456 kts 38°
2026-05-08 02:01 62.40281 16.79035 38169 ft 456 kts 38°
2026-05-08 02:02 62.45311 16.87369 38167 ft 456 kts 38°
2026-05-08 02:02 62.50302 16.95676 38171 ft 456 kts 38°
2026-05-08 02:03 62.55333 17.04085 38166 ft 455 kts 38°
2026-05-08 02:03 62.60343 17.12498 38164 ft 455 kts 38°
2026-05-08 02:04 62.65321 17.20893 38170 ft 455 kts 38°
2026-05-08 02:04 62.70319 17.29359 38167 ft 457 kts 39°
2026-05-08 02:05 62.75332 17.37886 38172 ft 456 kts 39°
2026-05-08 02:05 62.80314 17.46397 38169 ft 455 kts 39°
2026-05-08 02:06 62.85316 17.54981 38170 ft 457 kts 39°
2026-05-08 02:06 62.90272 17.63526 38171 ft 456 kts 39°
2026-05-08 02:07 62.95252 17.72150 38166 ft 455 kts 39°
2026-05-08 02:07 63.00206 17.80766 38171 ft 453 kts 39°
2026-05-08 02:08 63.05170 17.89439 38166 ft 456 kts 39°
2026-05-08 02:08 63.10108 17.98105 38171 ft 457 kts 39°
2026-05-08 02:09 63.15078 18.06866 38173 ft 457 kts 39°
2026-05-08 02:09 63.20046 18.15661 38171 ft 456 kts 39°
2026-05-08 02:10 63.24987 18.24451 38168 ft 455 kts 39°
2026-05-08 02:10 63.29894 18.33217 38167 ft 455 kts 39°
2026-05-08 02:11 63.34785 18.41996 38169 ft 455 kts 39°
2026-05-08 02:11 63.39702 18.50864 38167 ft 454 kts 40°
2026-05-08 02:12 63.44596 18.59726 38166 ft 455 kts 40°
2026-05-08 02:12 63.49517 18.68679 38173 ft 456 kts 40°
2026-05-08 02:13 63.54387 18.77581 38168 ft 455 kts 40°
2026-05-08 02:13 63.59297 18.86597 38169 ft 456 kts 40°
2026-05-08 02:14 63.64185 18.95612 38165 ft 455 kts 40°
2026-05-08 02:14 63.69030 19.04591 38169 ft 455 kts 40°
2026-05-08 02:15 63.73922 19.13701 38169 ft 455 kts 40°
2026-05-08 02:15 63.78804 19.22831 38171 ft 455 kts 40°
2026-05-08 02:16 63.83653 19.31942 38171 ft 455 kts 40°
2026-05-08 02:16 63.88522 19.41131 38164 ft 455 kts 40°
2026-05-08 02:17 63.93382 19.50348 38165 ft 455 kts 40°
2026-05-08 02:17 63.98229 19.59586 38163 ft 454 kts 40°
2026-05-08 02:18 64.03023 19.68763 38163 ft 454 kts 41°
2026-05-08 02:18 64.07863 19.78070 38161 ft 454 kts 41°
2026-05-08 02:19 64.12692 19.87402 38158 ft 454 kts 41°
2026-05-08 02:19 64.17471 19.96682 38159 ft 454 kts 41°
2026-05-08 02:20 64.22292 20.06087 38162 ft 454 kts 41°
2026-05-08 02:20 64.27073 20.15455 38166 ft 455 kts 41°
2026-05-08 02:21 64.31921 20.25001 38163 ft 455 kts 41°
2026-05-08 02:21 64.36591 20.34239 38166 ft 455 kts 41°
2026-05-08 02:22 64.41398 20.43794 38171 ft 455 kts 41°
2026-05-08 02:22 64.46194 20.53376 38175 ft 455 kts 41°
2026-05-08 02:23 64.50977 20.62976 38175 ft 455 kts 41°
2026-05-08 02:23 64.55767 20.72637 38171 ft 454 kts 41°
2026-05-08 02:24 64.60540 20.82310 38168 ft 455 kts 42°
2026-05-08 02:24 64.65275 20.91952 38170 ft 454 kts 42°
2026-05-08 02:25 64.69977 21.01573 38170 ft 454 kts 42°
2026-05-08 02:25 64.74660 21.11199 38166 ft 454 kts 42°
2026-05-08 02:26 64.79334 21.20855 38161 ft 453 kts 42°
2026-05-08 02:26 64.84052 21.30649 38161 ft 453 kts 42°
2026-05-08 02:27 64.88763 21.40476 38158 ft 453 kts 42°
2026-05-08 02:27 64.93477 21.50361 38155 ft 453 kts 42°
2026-05-08 02:28 64.98151 21.60206 38153 ft 453 kts 43°
2026-05-08 02:28 65.02863 21.70182 38156 ft 453 kts 43°
2026-05-08 02:29 65.07509 21.80062 38159 ft 453 kts 43°
2026-05-08 02:29 65.12192 21.90077 38162 ft 453 kts 43°
2026-05-08 02:30 65.16870 22.00127 38165 ft 453 kts 43°
2026-05-08 02:30 65.21516 22.10157 38165 ft 453 kts 43°
2026-05-08 02:31 65.26184 22.20285 38170 ft 454 kts 43°
2026-05-08 02:31 65.30846 22.30450 38170 ft 454 kts 43°
2026-05-08 02:32 65.35404 22.40441 38172 ft 454 kts 43°
2026-05-08 02:32 65.37277 22.44562 38174 ft 454 kts 43°
2026-05-08 02:35 65.38198 22.46590 38174 ft 454 kts 43°
2026-05-08 02:36 65.42853 22.56873 38176 ft 455 kts 43°
2026-05-08 02:36 65.47498 22.67187 37933 ft 454 kts 43°
2026-05-08 02:37 65.49817 22.72357 37687 ft 452 kts 44°
2026-05-08 02:37 65.52128 22.77521 37413 ft 452 kts 44°
2026-05-08 02:37 65.54434 22.82687 36815 ft 455 kts 44°
2026-05-08 02:37 65.56763 22.87917 36052 ft 458 kts 44°
2026-05-08 02:38 65.59088 22.93154 35395 ft 457 kts 44°
2026-05-08 02:38 65.61409 22.98394 34709 ft 456 kts 44°
2026-05-08 02:38 65.63763 23.03721 33892 ft 458 kts 44°
2026-05-08 02:38 65.66060 23.08930 33182 ft 458 kts 44°
2026-05-08 02:39 65.68312 23.14053 32418 ft 459 kts 44°
2026-05-08 02:39 65.70612 23.19300 31618 ft 460 kts 44°
2026-05-08 02:39 65.72936 23.24613 31082 ft 455 kts 44°
2026-05-08 02:39 65.75225 23.29860 30494 ft 451 kts 44°
2026-05-08 02:40 65.77496 23.35079 29924 ft 447 kts 44°
2026-05-08 02:40 65.79744 23.40259 29356 ft 442 kts 44°
2026-05-08 02:40 65.81970 23.45398 28779 ft 438 kts 44°
2026-05-08 02:40 65.84170 23.50495 28237 ft 434 kts 44°
2026-05-08 02:41 65.86346 23.55544 27682 ft 430 kts 44°
2026-05-08 02:41 65.88505 23.60568 27135 ft 426 kts 44°
2026-05-08 02:41 65.90602 23.65464 26604 ft 423 kts 44°
2026-05-08 02:41 65.92721 23.70418 26053 ft 419 kts 44°
2026-05-08 02:42 65.94820 23.75340 25512 ft 415 kts 44°
2026-05-08 02:42 65.96896 23.80218 24973 ft 412 kts 45°
2026-05-08 02:42 65.98876 23.84880 24458 ft 408 kts 45°
2026-05-08 02:42 66.00911 23.89684 23925 ft 405 kts 45°
2026-05-08 02:43 66.02932 23.94460 23395 ft 401 kts 45°
2026-05-08 02:43 66.04937 23.99204 22865 ft 397 kts 45°
2026-05-08 02:43 66.06919 24.03901 22344 ft 394 kts 45°
2026-05-08 02:43 66.08885 24.08572 21815 ft 391 kts 45°
2026-05-08 02:44 66.10825 24.13192 21300 ft 387 kts 45°
2026-05-08 02:44 66.12757 24.17802 20774 ft 384 kts 45°
2026-05-08 02:44 66.14672 24.22382 20261 ft 381 kts 45°
2026-05-08 02:44 66.16558 24.26902 19746 ft 378 kts 45°
2026-05-08 02:45 66.18441 24.31426 19235 ft 375 kts 45°
2026-05-08 02:45 66.20304 24.35909 18732 ft 372 kts 45°
2026-05-08 02:45 66.22150 24.40362 18224 ft 369 kts 45°
2026-05-08 02:45 66.23980 24.44786 17729 ft 366 kts 45°
2026-05-08 02:46 66.25786 24.49162 17215 ft 364 kts 45°
2026-05-08 02:46 66.27563 24.53478 16743 ft 361 kts 45°
2026-05-08 02:46 66.29353 24.57834 16236 ft 359 kts 45°
2026-05-08 02:46 66.31110 24.62121 15751 ft 356 kts 45°
2026-05-08 02:47 66.32779 24.66461 15278 ft 353 kts 51°
2026-05-08 02:47 66.34272 24.71449 14797 ft 349 kts 58°
2026-05-08 02:47 66.35417 24.76740 14318 ft 346 kts 67°
2026-05-08 02:47 66.36358 24.81951 13858 ft 344 kts 66°
2026-05-08 02:48 66.37387 24.87377 13368 ft 342 kts 65°
2026-05-08 02:48 66.38418 24.92755 12889 ft 339 kts 65°
2026-05-08 02:48 66.39431 24.98060 12403 ft 337 kts 65°
2026-05-08 02:48 66.40426 25.03305 12036 ft 331 kts 65°
2026-05-08 02:49 66.41396 25.08453 11796 ft 323 kts 65°
2026-05-08 02:49 66.42313 25.13348 11636 ft 311 kts 65°
2026-05-08 02:49 66.43231 25.18263 11230 ft 301 kts 66°
2026-05-08 02:49 66.44085 25.22842 10981 ft 288 kts 66°
2026-05-08 02:50 66.44916 25.27316 10735 ft 283 kts 66°
2026-05-08 02:50 66.45715 25.31632 10486 ft 277 kts 66°
2026-05-08 02:50 66.46518 25.35922 10245 ft 276 kts 63°
2026-05-08 02:50 66.47584 25.39801 9919 ft 278 kts 48°
2026-05-08 02:51 66.49025 25.42915 9567 ft 278 kts 37°
2026-05-08 02:51 66.50560 25.45711 9220 ft 277 kts 37°
2026-05-08 02:51 66.52065 25.48503 8870 ft 275 kts 38°
2026-05-08 02:51 66.53557 25.51303 8531 ft 274 kts 38°
2026-05-08 02:52 66.54982 25.53997 8207 ft 272 kts 38°
2026-05-08 02:52 66.56426 25.56723 7873 ft 271 kts 38°
2026-05-08 02:52 66.57889 25.59488 7517 ft 269 kts 38°
2026-05-08 02:52 66.59329 25.62210 7192 ft 269 kts 38°
2026-05-08 02:53 66.60791 25.64970 6854 ft 267 kts 38°
2026-05-08 02:53 66.62200 25.67638 6528 ft 266 kts 38°
2026-05-08 02:53 66.63644 25.70389 6204 ft 264 kts 38°
2026-05-08 02:53 66.65034 25.73043 6024 ft 256 kts 39°
2026-05-08 02:54 66.66393 25.75645 5727 ft 254 kts 39°
2026-05-08 02:54 66.67750 25.78250 5407 ft 253 kts 38°
2026-05-08 02:54 66.69099 25.80837 5101 ft 253 kts 38°
2026-05-08 02:54 66.70437 25.83408 4795 ft 253 kts 39°
2026-05-08 02:55 66.71788 25.86012 4512 ft 252 kts 39°
2026-05-08 02:55 66.74226 25.91771 4066 ft 239 kts 66°
2026-05-08 02:55 66.74548 25.95619 3787 ft 233 kts 95°
2026-05-08 02:56 66.74062 25.99149 3642 ft 221 kts 126°
2026-05-08 02:56 66.73158 26.01971 3549 ft 209 kts 129°
2026-05-08 02:56 66.72298 26.04649 3464 ft 198 kts 128°
2026-05-08 02:56 66.71349 26.06765 3421 ft 179 kts 153°
2026-05-08 02:57 66.70285 26.07349 3351 ft 167 kts 182°
2026-05-08 02:57 66.69324 26.06791 3255 ft 156 kts 201°
2026-05-08 02:57 66.68455 26.05640 3206 ft 159 kts 210°
2026-05-08 02:57 66.67683 26.04332 3047 ft 158 kts 213°
2026-05-08 02:58 66.66882 26.02860 2891 ft 154 kts 215°
2026-05-08 02:58 66.66126 26.01410 2733 ft 152 kts 215°
2026-05-08 02:58 66.65383 26.00005 2532 ft 147 kts 215°
2026-05-08 02:58 66.64655 25.98609 2386 ft 147 kts 215°
2026-05-08 02:59 66.63965 25.97305 2197 ft 142 kts 216°
2026-05-08 02:59 66.63240 25.95920 2042 ft 141 kts 214°
2026-05-08 02:59 66.62538 25.94587 1875 ft 143 kts 215°
2026-05-08 02:59 66.61829 25.93235 1704 ft 136 kts 214°
2026-05-08 03:00 66.61165 25.91964 1557 ft 146 kts 216°
2026-05-08 03:00 66.60458 25.90620 1368 ft 142 kts 214°
2026-05-08 03:00 66.59756 25.89281 1206 ft 139 kts 215°
2026-05-08 03:00 66.59058 25.87956 1063 ft 140 kts 216°
2026-05-08 03:01 66.58356 25.86611 875 ft 141 kts 216°
2026-05-08 03:01 66.57648 25.85249 675 ft 142 kts 216°
2026-05-08 03:01 66.56985 25.84005 632 ft 125 kts 216°
2026-05-08 03:01 66.56457 25.83013 632 ft 86 kts 216°
2026-05-08 03:02 66.56130 25.82399 642 ft 55 kts 222°
2026-05-08 03:02 66.55939 25.82008 647 ft 25 kts 221°
2026-05-08 03:02 66.55846 25.81811 641 ft 15 kts 225°
2026-05-08 03:02 66.55809 25.81698 644 ft 6 kts 170°
2026-05-08 03:03 66.55809 25.81760 645 ft 5 kts 54°
2026-05-08 03:03 66.55845 25.81827 640 ft 10 kts 35°
2026-05-08 03:03 66.55902 25.81923 642 ft 13 kts 34°
2026-05-08 03:03 66.55974 25.82049 639 ft 16 kts 37°
2026-05-08 03:04 66.56027 25.82232 639 ft 15 kts 102°
2026-05-08 03:04 66.55971 25.82430 635 ft 17 kts 129°
2026-05-08 03:04 66.55941 25.82581 635 ft 6 kts 102°
2026-05-08 03:04 66.55923 25.82658 638 ft 3 kts 150°
2026-05-08 03:05 66.55917 25.82660 638 ft 1 kts 165°
2026-05-08 03:05 66.55908 25.82684 638 ft 3 kts 126°
2026-05-08 03:05 66.55911 25.82736 635 ft 4 kts 59°
2026-05-08 03:05 66.55939 25.82741 635 ft 6 kts 333°
2026-05-08 03:06 66.55938 25.82717 637 ft 0 kts 229°